Location: Unspecified
(47.1121°N, 116.3927°W)
Time: 20:07:01
(UTC-07:00)

Cosmos 1674 - Visible Passes

Search period start: 23 September 2017 00:00
Search period end: 03 October 2017 00:00
Orbit: 498 x 523 km, 82.5° (Epoch: 23 September)

Date Brightness Start Highest point End Pass type
(mag) Time Alt. Az. Time Alt. Az. Time Alt. Az.
23 Sep 4.0 19:45:38 10° NNE 19:48:30 20° ENE 19:49:14 19° E visible
23 Sep 4.3 21:20:51 10° NNW 21:24:09 30° W 21:24:09 30° W visible
24 Sep 4.3 19:29:12 10° NNE 19:31:41 17° ENE 19:32:59 14° E visible
24 Sep 3.9 21:03:58 10° NNW 21:07:28 38° W 21:07:54 37° WSW visible
25 Sep 4.5 19:12:53 10° NE 19:14:50 14° ENE 19:16:47 10° E visible
25 Sep 3.4 20:47:08 10° NNW 20:50:46 49° W 20:51:42 38° SW visible
26 Sep 3.0 20:30:19 10° NNW 20:34:02 64° W 20:35:35 32° SSW visible
27 Sep 2.6 20:13:32 10° N 20:17:18 82° W 20:19:34 23° S visible
28 Sep 2.5 19:56:48 10° N 20:00:33 77° E 20:03:40 14° SSE visible
29 Sep 2.6 19:40:04 10° N 19:43:47 60° E 19:47:28 10° SSE visible
29 Sep 5.9 21:17:57 10° WNW 21:18:49 11° W 21:19:42 10° W visible
30 Sep 2.9 19:23:22 10° N 19:27:00 46° ENE 19:30:36 10° SSE visible
30 Sep 5.8 21:00:19 10° NW 21:02:11 13° W 21:04:03 10° WSW visible
01 Oct 3.2 19:06:43 10° N 19:10:13 36° ENE 19:13:41 10° SE visible
01 Oct 5.6 20:43:05 10° NW 20:45:31 17° W 20:47:56 10° SW visible
02 Oct 3.5 18:50:05 10° NNE 18:53:24 29° ENE 18:56:42 10° SE visible
02 Oct 5.3 20:26:00 10° NW 20:28:50 21° W 20:31:40 10° SW visible
